User: anonymous   Login
Location: Unspecified
(0.0000°N, 0.0000°E)
Time: 17:07:44
(UTC+00:00)
Language:

DSP F17 - Orbit

View from above orbital plane
View from above orbital plane
View from above satellite
View from above satellite

Ground track
Ground track

The orbit data is extracted from the following two-line orbital elements,

1 23435U 94084A   23271.96372689  .00000049  00000-0  00000-0 0  9990
2 23435  14.5625   2.1648 0004692 221.1369 192.9074  0.99074012 22983
Epoch (UTC): 28 September 2023 23:07:46
Eccentricity: 0.0004692
inclination: 14.5625°
perigee height: 36105 km
apogee height: 36145 km
right ascension of ascending node: 2.1648°
argument of perigee: 221.1369°
revolutions per day: 0.99074012
mean anomaly at epoch: 192.9074°
orbit number at epoch: 2298

The dashed part of the orbit path shows where the satellite is in the earth's shadow,  

DLR